Location: ActonStarParty
(42.4766°N, 71.4538°W)
Time: 00:53:39
(UTC-04:00)

Cosmos 1933 Rocket - Pass Details

Date: 19 April 2018
Orbit: 606 x 631 km, 82.5° (Epoch: 20 May)

Event Time Altitude Azimuth Distance (km) Brightness Sun altitude
Rises 20:57:08 0° 356° (N) 2,905 7.5 -15.1°
Reaches altitude 10° 20:59:25 10° 0° (N) 1,990 6.6 -15.5°
Maximum altitude 21:03:45 56° 79° (E) 734 3.6 -16.1°
Enters shadow 21:05:48 29° 146° (SE) 1,139 4.4 -16.4°
